Regional Weather Roundup
Issued by NWS

Home | Current Version | Previous Version | Graphics & Text | Print | Product List | Glossary On
Versions: 1 2 3 4 5 6 7 8 9 10 11 12 13 14 15 16 17 18 19 20 21 22 23 24 25 26 27 28 29 30 31 32 33 34 35 36 37 38 39 40 41 42 43 44 45 46 47 48 49 50
000
ASUS43 KBIS 200902
RWRND

NORTH DAKOTA REGIONAL WEATHER ROUNDUP
NATIONAL WEATHER SERVICE BISMARCK ND
300 AM CST FRI JAN 20 2017

NOTE: "FAIR" INDICATES FEW OR NO CLOUDS BELOW 12,000 FEET WITH NO
SIGNIFICANT WEATHER AND/OR OBSTRUCTIONS TO VISIBILITY.


NDZ001>003-009>011-017-201000-
NORTHWEST NORTH DAKOTA

CITY           SKY/WX    TMP DP  RH WIND       PRES   REMARKS
WILLISTON      FAIR      11   9  92 CALM      29.42R FOG
MINOT          FAIR      21  17  84 SW9       29.40S WCI  11
MINOT AFB      CLOUDY    13  10  86 S6        29.40R WCI   4
$$

NDZ018>021-031>035-040>046-201000-
SOUTHWEST NORTH DAKOTA

CITY           SKY/WX    TMP DP  RH WIND       PRES   REMARKS
BISMARCK       FOG       20  19  96 CALM      29.46R VSB 1/4
DICKINSON      FAIR      19  15  84 W12       29.38R WCI   7
GARRISON         N/A      6   3  87 CALM      29.41S
HETTINGER ARPT CLOUDY    17  14  88 NW6       29.40S WCI   9
$$

NDZ004>008-012>016-024-026-027-054-201000-
NORTHEAST NORTH DAKOTA

CITY           SKY/WX    TMP DP  RH WIND       PRES   REMARKS
GRAND FORKS    CLOUDY    35  33  92 S9        29.55R FOG
GRND FRKS AFB  CLOUDY    34  34  99 SE7       29.54R FOG
DEVILS LAKE    LGT SNOW  28  28 100 S10       29.49R VSB 1   WCI  19
$$

NDZ022-023-025-028>030-036>039-047>053-201000-
SOUTHEAST NORTH DAKOTA

CITY           SKY/WX    TMP DP  RH WIND       PRES   REMARKS
FARGO          CLOUDY    48  35  60 S15       29.56S HAZE
JAMESTOWN      FOG       33  33 100 S6        29.48S VSB 1/2
$$




USA.gov is the U.S. government's official web portal to all federal, state and local government web resources and services.